OPS 5798 DEB, 903

Orbit data source: Space-Track

OPS 5798 DEB, 903 is space debris in LEO originally from a launch on Tue, 06 Oct 1964 UTC launched from the Air Force Western Test Range (AFWTR). Debris objects in space refer to the collection of defunct objects orbiting the Earth. Examples of debris include non-operational satellites, rocket bodies, and fragments generated from explosions, collisions, or faulty payload assembly.

Loading next visibility...
OPS 5798 DEB details
Identifier
903, 1964-063F
Orbit
LEO
Last TLE update1 day ago
Origin
Flag of USUSN BuWeps (US)
ManufacturerUnknown
MissionSpacecraft
Bus & MotorUnknown
MassUnknown
Launch date (UTC)
1964-10-06 (60 years ago)
Launch vehicleUnknown
Launch site
Air Force Western Test Range (AFWTR)
Object type
Payload
Rocket body
Debris
Shape & HBRUnknown
Radar Cross SectionSmall (<0.1 m²)

Expand to show TLE details & history

TLE from 1 day ago
0 OPS 5798 DEB
1   903U 64063F   25037.53496295  .00001372  00000-0  13170-2 0  9998
2   903  90.2096  59.5976 0023385 169.6881 342.9561 13.79714797  6473
Epoch: 2025-02-06T12:50Z
Definitive object data (Epoch: 2025-02-06T12:50:20.798Z)
Latitude27.47217°
Longitude-89.7908°
Altitude951.935 km
Speed7.386 km/s
True Right ascension15h 58m 49s
True Declination27° 20' 07"
Sunlit
Object was in daylight at TLE epoch
Visualization TLE readout
Latitude-73.96384°
Longitude-90.60166°
Altitude991.205 km
Speed7.356 km/s
Apparent Right ascension03h 51m 03s
Apparent Declination-75° 36' 06"
Sunlit
Object is in daylight
Visualization observer readout
Local Sidereal Time15:52:56
Azimuth179.799° S
Elevation-54.314°
Doppler factor1
Orbital elements
Apogee altitude979.07 km
Perigee altitude944.74 km
Semi-major axis7,340.042 km
Eccentricity0.0023385
Inclination90.2096°
RAAN59.5976°
Arg. of periapsis169.6881°
True anomaly342.87734°
Mean anomaly342.9561°
Eccentric anomaly342.91674°
Mean motion3.4514 °/min
BSTAR0.001317
Orbital period104.31 mins
Loading maneuver chart data...
Loading historical data...
Loading historical data...
Loading historical data...
Loading historical data...
Loading historical data...
Loading historical data...
Loading historical data...

OPS 5798 DEB Visibility forecast

Observer location: undefined°, undefined

Span
Click to sort rows by Start time (UTC) header in descending order
Start Az.
Max El. time (UTC)
Max El. Az.
Max El.
End time (UTC)
End Az.
8 mins2025-02-07 14:48:41.434Z332.592° NNW2025-02-07 14:52:41.434Z284.005° WNW23.943°2025-02-07 14:56:41.434Z235.339° WSW
8 mins2025-02-08 00:47:41.434Z127.951° SE2025-02-08 00:51:41.434Z68.644° E28.479°2025-02-08 00:55:41.434Z21.198° NNE
9 mins2025-02-08 02:31:41.434Z222.092° SW2025-02-08 02:35:41.434Z283.225° WNW29.606°2025-02-08 02:40:41.434Z338.932° N
10 mins2025-02-08 13:26:41.434Z10.289° NNE2025-02-08 13:30:41.434Z75.974° E43.283°2025-02-08 13:36:41.434Z175.235° S
|